SCP
1 1 0 0 0 0 0 0 0 0 0 0 1 1 2 1 1 0 0 1 1 2 3 4 4 3 4 4 5 4 3 2 1 2 2 1 1 1 1 1 1 1 1 1 1 1 1 1 1
1 1 1 0 0 0 0 0 0 0 0 1 1 1 1 1 1 0 0 1 1 1 2 3 3 3 4 4 5 4 3 2 2 2 2 2 1 1 1 1 1 1 1 1 1 1 1 1 1
1 1 1 1 0 0 0 0 0 0 1 1 1 1 1 1 0 0 0 1 1 1 2 2 2 3 4 4 4 4 3 2 2 2 2 2 2 2 2 2 2 2 2 2 2 1 1 1 1
1 1 1 1 1 1 0 0 0 0 1 1 1 1 1 1 0 0 0 1 1 1 1 1 2 3 4 4 4 3 3 2 2 2 2 3 2 2 2 2 2 2 2 2 2 2 2 2 1
1 1 1 1 1 1 0 0 0 1 1 1 2 1 1 1 0 0 1 1 1 1 1 1 2 3 4 4 4 3 3 2 2 2 3 3 2 2 2 2 2 2 2 2 2 2 2 2 2
1 1 1 1 1 1 0 0 1 1 1 1 2 1 1 1 1 1 1 1 1 1 1 1 2 3 4 4 3 3 2 2 3 3 3 2 2 2 2 2 2 2 2 2 3 3 3 2 2
1 1 1 1 1 1 0 0 1 1 1 1 1 1 1 1 1 1 1 1 0 1 1 1 2 2 3 3 3 2 2 2 3 3 3 2 2 2 2 2 1 1 1 2 2 3 3 3 3
1 1 1 1 1 0 0 1 1 1 1 1 1 1 1 1 1 1 1 1 0 1 1 1 2 2 2 2 2 2 2 2 2 3 3 2 1 1 1 1 1 1 1 1 2 2 2 3 3
2 1 1 1 1 0 0 1 1 1 1 1 1 1 1 1 1 1 1 1 0 1 1 1 1 1 1 1 1 2 2 1 2 2 2 2 1 1 1 1 1 1 1 1 1 1 2 2 2
2 1 1 1 1 1 1 1 1 1 1 1 1 1 1 1 1 1 0 0 1 1 1 1 1 1 1 1 1 2 1 1 1 1 1 1 1 1 1 1 1 1 1 1 1 1 1 1 1
1 1 1 1 1 1 1 1 1 1 1 1 1 1 1 1 1 1 0 0 1 1 1 1 1 1 1 1 1 1 1 1 1 1 1 1 1 1 1 1 1 0 1 1 1 1 1 1 1
1 1 1 1 1 1 0 0 0 1 1 1 1 1 1 1 1 1 1 1 1 1 1 1 1 1 1 1 1 1 1 1 1 1 0 1 1 0 0 0 0 0 0 0 0 1 1 1 1
1 1 1 1 0 0 0 0 0 1 1 1 1 1 2 2 1 1 1 1 1 1 1 1 1 1 1 1 1 1 1 1 1 0 0 0 0 0 0 0 0 0 0 0 0 0 1 1 1
1 1 1 0 0 0 0 0 0 1 1 1 1 1 1 1 1 1 1 1 1 1 1 1 1 1 1 1 1 1 1 1 1 0 0 0 0 0 0 0 0 0 0 0 0 0 0 0 0
1 1 0 0 0 0 0 0 0 1 1 1 1 1 1 1 1 1 1 1 1 1 1 1 1 1 1 1 1 1 1 1 1 1 0 0 0 0 1 0 0 0 0 0 0 0 0 0 1
1 1 0 0 0 0 0 0 0 0 1 1 1 1 1 1 1 1 1 1 1 1 1 2 2 2 2 1 1 1 1 1 1 0 0 0 1 1 1 1 0 0 1 1 1 0 0 1 1
1 0 0 0 0 0 0 0 0 0 1 1 1 1 1 0 0 1 1 1 1 1 2 3 3 3 3 2 2 1 1 1 1 0 0 1 1 1 1 1 1 1 1 1 1 1 1 1 1
0 0 0 0 0 0 0 0 0 1 1 1 1 1 1 0 0 1 1 2 2 2 2 3 4 4 3 2 2 1 1 1 1 1 1 1 1 1 1 1 1 0 0 0 1 1 1 1 1
0 0 0 0 0 0 0 0 0 1 1 1 1 1 1 0 1 1 2 3 3 3 3 4 4 4 3 2 2 2 1 1 1 1 1 1 1 1 1 0 0 0 1 1 0 1 1 1 1
0 0 0 0 0 0 0 0 0 1 1 1 1 1 1 1 1 1 3 4 3 3 4 5 5 5 3 2 2 2 2 1 1 1 1 1 1 1 1 1 1 1 1 1 1 1 1 1 1
0 0 0 0 0 0 0 0 0 0 1 2 2 2 1 1 1 1 2 3 3 4 5 6 5 4 3 2 2 2 2 1 1 1 1 1 1 1 1 1 1 1 1 1 1 1 1 1 1
0 0 0 0 0 0 0 0 0 0 1 2 2 2 3 3 2 2 2 3 3 4 5 5 4 3 2 2 2 2 2 2 1 1 1 2 2 2 2 2 1 1 1 1 1 1 1 1 1
0 0 0 0 0 0 0 0 0 0 0 1 2 2 3 4 4 3 3 3 3 4 4 4 3 2 2 2 2 2 2 2 2 2 2 2 2 2 2 2 2 2 2 1 1 1 1 1 1
0 0 0 0 0 0 0 0 0 0 0 1 1 2 3 4 3 3 3 2 2 2 2 2 2 1 2 2 2 2 2 2 2 2 2 2 2 2 2 3 3 3 3 2 2 1 1 1 1
0 0 0 0 0 0 0 0 0 0 0 1 1 2 3 3 2 2 1 1 1 1 1 1 1 1 1 2 2 2 2 2 2 2 2 2 2 2 2 2 3 3 3 3 2 1 1 1 1
0 0 0 0 0 0 0 0 1 1 1 1 1 1 2 2 2 1 1 1 1 1 1 1 1 1 2 2 2 2 2 2 2 2 2 2 2 2 2 2 2 2 2 2 2 1 1 1 1
0 0 0 0 0 0 0 0 1 1 1 1 1 1 1 2 2 1 1 1 1 1 1 1 2 2 3 3 3 3 2 2 2 2 2 2 2 2 1 2 2 2 2 2 1 1 1 1 1
0 0 0 0 0 0 0 0 0 1 1 1 1 1 1 2 2 2 1 1 1 1 1 2 3 3 3 4 4 4 3 3 3 3 2 2 2 1 1 1 1 1 2 1 1 1 1 1 1
0 0 0 0 0 0 0 0 0 1 1 1 1 1 1 2 2 2 2 1 1 1 2 2 3 3 3 4 5 5 4 4 3 3 2 2 2 1 1 1 1 1 2 2 1 1 1 1 1
0 0 0 0 0 0 0 0 0 1 1 1 1 2 2 2 2 2 2 1 1 1 2 2 2 2 3 4 5 5 5 4 3 3 2 2 1 1 1 1 1 1 2 2 1 1 1 1 1
Wind_Speed
7 5 2 1 2 3 2 3 1 2 2 2 3 4 4 3 1 2 1 5 5 6 5 8 10 11 11 11 11 12 11 11 11 10 10 11 12 12 12 12 12 11 11 11 10 10 10 9 8
5 4 1 1 4 2 3 2 1 1 2 2 3 4 4 3 2 4 3 4 6 6 5 7 10 11 11 11 11 11 10 10 10 10 9 10 12 12 11 11 11 11 11 11 10 10 9 9 8
6 3 1 2 2 2 1 1 1 1 1 1 3 4 3 2 2 2 3 7 6 5 5 7 11 11 11 10 10 10 10 10 10 9 9 10 11 11 10 10 10 10 10 10 9 9 8 8 8
3 1 2 3 1 2 3 2 1 1 3 4 3 4 3 2 2 3 6 8 7 5 5 7 11 11 11 10 10 10 10 9 9 9 9 9 10 9 9 9 9 8 8 8 8 7 7 7 7
1 2 3 2 2 2 1 2 1 1 2 3 4 4 3 3 4 7 7 7 8 6 5 6 11 11 11 10 10 9 9 9 8 8 8 8 8 8 8 7 7 7 7 6 7 6 6 6 6
2 2 3 2 2 2 0 0 2 3 3 3 3 3 2 2 4 5 5 6 7 6 5 5 9 10 10 9 9 9 9 8 8 8 8 8 8 7 7 6 6 5 5 5 5 5 5 5 5
2 3 1 0 1 2 0 1 2 3 3 2 3 3 1 1 3 4 5 6 6 5 5 3 4 6 8 8 8 8 8 8 8 7 7 7 7 6 5 5 4 4 4 4 4 4 4 4 4
2 2 1 0 1 2 0 1 1 3 2 3 4 5 3 2 5 7 7 7 6 5 4 4 3 3 3 4 6 7 7 7 7 7 6 6 6 5 4 4 3 3 3 3 3 3 3 4 4
2 3 0 2 3 1 0 2 1 2 4 3 2 3 4 9 9 8 7 6 5 4 3 3 3 3 2 2 4 5 6 6 6 4 5 4 2 2 2 3 2 2 2 2 2 3 3 2 2
3 1 4 4 3 2 1 1 2 3 3 2 4 6 9 10 9 9 8 7 6 5 4 3 3 3 3 2 2 2 2 3 3 2 2 2 2 1 1 1 1 1 1 1 1 1 1 1 1
4 5 3 2 3 2 1 1 2 6 2 4 7 10 11 9 8 8 7 7 6 5 4 3 3 3 3 2 2 2 2 2 2 2 2 2 2 1 1 1 1 1 2 1 1 1 0 1 1
3 5 3 2 1 2 2 2 2 3 4 5 9 12 11 10 9 8 8 7 5 5 4 4 4 3 3 2 2 2 2 2 1 1 1 2 1 1 1 1 1 1 1 1 1 1 1 1 2
2 2 1 2 1 1 3 3 3 1 3 7 10 10 10 9 7 6 6 5 6 6 5 4 4 4 4 3 2 2 2 2 2 1 1 1 1 1 1 1 1 1 1 1 1 1 2 2 2
2 0 1 2 1 1 4 2 3 1 5 9 10 9 9 9 9 6 6 7 7 6 6 5 5 4 4 3 2 2 2 2 1 1 1 1 1 1 1 1 1 1 0 0 1 1 2 1 1
1 3 4 2 2 1 4 2 1 4 7 8 8 8 8 7 8 8 8 7 6 6 5 5 5 5 4 4 3 2 2 2 1 1 1 1 2 2 1 1 0 0 0 1 1 2 2 1 1
3 3 2 3 1 1 4 2 2 5 7 7 7 7 7 6 7 6 6 5 5 5 5 5 5 5 5 4 3 2 2 1 1 0 0 1 2 2 2 1 0 0 1 1 1 1 1 1 1
4 1 1 3 1 1 2 3 3 5 7 7 7 7 6 5 5 5 6 6 5 6 6 5 5 5 5 4 3 3 2 1 1 0 0 1 1 2 2 1 1 1 1 1 1 1 1 1 1
2 1 1 3 3 1 1 3 3 5 6 7 6 6 6 7 7 6 6 6 5 5 5 6 6 5 5 3 3 2 1 1 0 1 1 1 1 1 2 1 1 1 1 1 1 1 1 1 0
3 2 3 4 2 1 2 3 3 5 5 5 5 6 7 7 5 5 6 6 6 6 6 6 6 5 5 3 2 2 1 1 0 1 1 1 1 2 2 1 1 1 1 1 2 2 1 1 1
2 1 2 3 1 1 1 3 3 5 7 7 8 8 8 6 5 6 6 6 7 7 6 6 6 6 5 3 2 2 2 1 1 0 0 1 1 2 2 2 1 1 1 1 1 2 1 1 1
2 3 3 2 3 3 1 4 2 2 3 3 4 5 6 9 9 8 7 7 7 7 7 7 6 6 5 5 3 3 2 2 1 0 0 0 1 2 2 2 2 2 2 2 2 2 2 1 1
3 4 4 2 2 2 1 3 6 3 3 4 5 5 7 8 8 8 8 8 8 7 6 5 6 5 5 5 4 5 3 2 2 1 1 0 1 1 2 2 2 2 2 2 2 2 2 2 1
4 1 2 2 2 1 2 1 7 1 4 7 7 7 7 8 9 9 9 8 7 6 6 5 5 4 4 4 5 4 3 2 1 1 1 0 0 1 1 2 2 2 2 2 1 2 2 2 2
4 5 5 5 4 1 2 2 7 4 7 6 7 7 7 7 7 7 6 6 5 5 5 5 5 4 4 4 4 4 4 4 3 2 1 0 0 0 1 2 2 2 2 2 2 2 2 2 2
4 6 4 4 3 5 2 2 9 7 6 6 7 7 7 7 7 7 7 7 6 6 6 6 6 4 4 4 4 4 4 4 4 3 2 1 1 1 1 2 2 2 2 2 2 2 2 2 2
4 8 7 5 4 4 2 5 8 5 4 4 4 4 5 6 7 8 8 8 7 8 7 7 7 6 5 5 4 4 4 3 3 3 3 2 2 2 2 2 2 2 2 2 2 2 1 1 2
5 3 5 7 2 1 5 6 8 2 2 2 3 3 5 6 8 8 8 8 8 8 8 8 7 6 6 6 5 4 4 4 3 3 2 2 2 2 2 2 2 2 2 2 2 1 1 1 1
4 7 5 5 4 3 5 5 5 5 5 3 3 4 5 5 6 7 7 7 7 7 6 6 6 6 6 5 4 3 4 4 4 3 3 2 2 2 2 2 2 2 2 2 2 1 1 1 1
3 4 5 4 5 6 3 8 6 7 6 6 6 5 6 6 6 7 7 7 7 6 6 6 6 5 4 4 3 3 3 4 3 3 3 3 2 2 2 2 2 2 2 2 2 2 1 2 1
4 6 7 5 4 4 4 9 4 4 4 5 5 4 4 5 5 6 7 7 6 6 6 6 6 5 5 4 4 4 3 3 3 3 3 3 3 2 2 2 2 2 2 2 2 2 2 2 2
Wind_Direction
163 152 153 157 52 45 344 308 306 5 17 23 63 84 96 85 116 141 136 137 133 136 142 140 137 136 136 135 133 131 132 131 131 133 140 147 148 145 144 144 145 146 146 144 142 143 147 150 149
153 157 169 55 70 46 320 313 28 5 159 136 70 72 68 54 63 109 129 147 135 137 135 139 139 137 134 134 133 132 132 131 131 133 135 141 146 144 145 145 147 147 146 146 146 144 146 148 150
162 190 99 65 82 169 235 260 141 83 91 46 60 49 68 83 119 146 156 142 130 134 134 142 140 138 135 135 134 134 132 129 131 132 132 134 140 144 146 148 148 147 147 148 148 147 146 150 152
160 105 51 57 15 236 209 218 146 86 43 41 72 55 51 49 144 142 136 139 135 141 139 144 143 141 138 136 134 133 132 131 132 131 133 136 141 144 145 146 147 147 148 150 150 151 153 158 157
112 81 50 24 320 295 236 216 197 94 65 50 73 78 30 16 91 119 135 146 146 146 141 144 146 143 140 139 137 136 133 133 132 130 131 137 138 137 136 138 142 142 145 150 157 162 164 170 167
64 66 63 358 324 328 318 98 83 85 93 79 78 86 35 54 102 126 134 142 145 142 138 140 148 145 142 142 141 140 137 137 135 134 131 129 128 128 131 131 131 140 147 153 158 165 172 176 172
89 73 81 219 313 325 305 69 92 106 105 117 116 100 69 72 112 112 111 119 122 121 122 124 137 142 144 146 146 144 140 137 133 132 132 131 132 133 133 132 137 145 153 156 160 168 174 172 169
132 87 34 278 189 275 303 63 79 107 121 116 112 131 174 175 117 100 94 99 107 111 118 125 124 127 134 142 146 142 139 136 131 130 131 132 131 129 130 130 140 155 166 169 172 178 179 179 173
120 69 265 223 196 235 139 87 79 86 102 84 88 133 142 129 118 109 104 103 116 130 129 132 132 128 127 133 141 133 132 127 128 125 126 114 83 84 106 135 148 162 166 169 171 179 180 176 169
115 139 237 217 192 183 208 155 153 107 101 89 76 86 116 128 133 136 141 145 149 156 158 148 146 142 135 147 121 101 103 102 102 96 95 84 80 81 98 118 141 124 113 126 127 182 183 151 113
173 206 243 241 190 163 175 171 134 135 168 185 155 142 140 142 146 154 158 155 163 166 163 153 147 142 135 125 110 95 89 85 82 84 88 95 83 67 48 42 28 19 24 26 24 354 25 111 116
200 244 228 247 193 165 184 150 122 160 201 164 150 146 148 155 166 170 168 166 160 161 165 154 144 135 132 126 118 112 106 104 103 101 94 101 91 63 42 39 24 22 21 25 16 38 79 104 110
228 273 246 215 236 170 132 133 133 136 106 116 130 139 156 165 171 172 166 162 162 166 167 158 148 146 143 134 138 127 124 127 123 105 100 118 124 106 63 38 35 21 25 34 34 56 87 98 99
258 305 351 347 34 84 122 110 99 156 122 126 138 154 171 176 172 167 169 173 178 176 168 155 153 154 143 138 133 124 125 123 116 129 163 158 155 150 139 86 35 2 16 36 63 73 80 84 91
55 49 10 355 28 81 101 51 191 166 140 145 156 165 178 184 178 181 184 182 180 170 160 159 160 152 147 147 144 133 127 128 139 168 173 163 158 161 156 142 167 287 41 61 65 66 79 89 81
31 46 7 308 44 104 106 234 231 158 153 163 171 175 182 191 190 188 181 177 170 160 161 169 162 150 151 147 141 139 135 139 155 179 196 172 166 167 156 152 185 222 75 83 93 78 78 71 75
24 35 290 297 283 130 125 232 224 164 164 177 180 182 185 188 189 185 178 174 168 167 164 160 150 151 150 141 131 127 121 118 132 136 219 187 172 173 158 164 172 137 105 95 126 94 113 105 88
239 235 267 263 277 120 192 240 223 176 176 191 189 186 187 192 199 184 175 167 159 156 155 153 148 147 139 126 117 109 99 99 133 168 199 166 153 158 153 153 157 140 122 107 108 118 108 121 131
174 180 261 268 268 175 232 244 228 186 185 196 201 195 193 200 193 166 164 161 151 148 150 153 152 152 140 140 151 150 171 190 195 196 188 174 168 159 139 141 132 141 147 158 146 136 117 65 71
165 216 283 304 319 174 258 277 239 192 199 198 200 198 195 187 172 169 166 166 168 167 167 163 162 160 157 163 159 151 144 150 176 215 169 181 176 173 166 156 159 145 129 117 131 141 130 87 80
203 195 224 246 350 23 42 324 280 233 208 207 206 198 189 186 184 179 177 179 176 180 182 178 174 167 164 158 131 111 83 60 57 32 293 256 182 171 162 155 148 142 145 160 169 149 142 141 86
253 225 196 169 76 316 59 289 287 242 228 220 214 201 198 192 185 181 182 184 186 187 179 176 173 170 164 154 153 158 158 169 195 192 204 273 124 143 153 156 151 154 149 158 171 146 144 146 166
218 152 115 107 129 27 9 184 285 281 241 235 220 208 203 194 186 185 186 187 186 179 174 171 163 167 161 158 170 170 166 170 160 135 125 87 68 141 162 162 162 164 164 170 162 151 152 157 165
136 69 56 52 70 357 250 181 276 238 226 233 217 205 203 193 186 183 181 174 174 166 163 162 162 168 161 168 176 177 173 167 155 167 169 186 247 245 179 165 175 179 176 181 183 176 165 166 162
103 93 39 4 12 255 254 207 252 250 232 221 217 210 200 189 180 174 174 175 174 169 166 161 158 159 165 173 182 182 182 180 179 186 188 194 208 227 230 183 184 188 192 183 166 160 174 173 176
166 141 155 190 218 275 308 242 258 260 257 228 208 201 187 182 177 177 180 179 179 174 169 164 165 167 171 180 187 182 185 187 192 189 186 202 213 219 211 183 183 183 174 169 155 157 189 177 187
137 161 158 131 146 284 281 283 297 284 289 221 187 177 186 187 180 180 182 179 179 176 176 176 171 169 172 181 182 184 188 190 193 188 184 198 215 210 189 172 170 174 166 162 153 158 186 159 173
134 142 104 118 147 242 287 272 255 259 254 244 205 202 204 194 186 179 178 178 178 178 175 169 170 174 174 173 185 189 193 196 191 181 187 199 212 207 183 181 177 173 165 158 151 160 174 146 182
113 105 110 116 151 159 240 267 232 222 219 218 219 210 203 197 189 178 174 174 169 165 168 170 170 169 172 178 187 193 194 188 182 189 202 205 206 191 186 184 178 179 180 175 164 182 170 167 200
162 162 148 153 207 177 184 263 280 227 218 206 214 211 195 189 184 173 168 162 160 168 174 176 177 178 180 180 182 190 180 171 181 197 204 198 198 197 193 185 183 194 192 187 184 200 191 188 207